This is the latest recevied weather packets stored in our database for station/object KM4CNW. If no packets are shown the sender has not sent any weather packets the latest 1 day(s).
| Time | Temp. | Humidity | Pressure | Rain* | Wind** | Luminosity | Snow |
|---|---|---|---|---|---|---|---|
| 1778044609 | 18.33° C | 64% | 1008.7 hPa | 0 mm | 1.79 m/s, 317° | 0 W/m² | - |
| 1778044305 | 18.89° C | 64% | 1008.3 hPa | 0 mm | 1.34 m/s, 279° | 0 W/m² | - |
| 1778044003 | 18.89° C | 63% | 1008.4 hPa | 0 mm | 2.68 m/s, 320° | 0 W/m² | - |
| 1778043700 | 18.89° C | 63% | 1008.5 hPa | 0 mm | 1.79 m/s, 335° | 0 W/m² | - |
| 1778043396 | 18.89° C | 62% | 1008.5 hPa | 0 mm | 1.79 m/s, 307° | 0 W/m² | - |
| 1778043093 | 18.89° C | 62% | 1008.9 hPa | 0 mm | 2.68 m/s, 319° | 0 W/m² | - |
| 1778042791 | 18.89° C | 61% | 1008.8 hPa | 0 mm | 1.34 m/s, 312° | 0 W/m² | - |
| 1778042488 | 18.89° C | 61% | 1008.7 hPa | 0 mm | 0.89 m/s, 314° | 0 W/m² | - |
| 1778042185 | 18.89° C | 61% | 1008.7 hPa | 0 mm | 2.68 m/s, 319° | 0 W/m² | - |
| 1778041883 | 18.89° C | 60% | 1008.5 hPa | 0 mm | 2.24 m/s, 328° | 0 W/m² | - |
| 1778041582 | 18.89° C | 60% | 1008.6 hPa | 0 mm | 1.34 m/s, 299° | 0 W/m² | - |
| 1778041279 | 18.89° C | 59% | 1008.5 hPa | 0 mm | 2.24 m/s, 320° | 0 W/m² | - |
| 1778040978 | 19.44° C | 59% | 1008.4 hPa | 0 mm | 1.79 m/s, 333° | 0 W/m² | - |
| 1778040674 | 19.44° C | 58% | 1008.6 hPa | 0 mm | 2.24 m/s, 329° | 0 W/m² | - |
| 1778040372 | 19.44° C | 58% | 1008.4 hPa | 0 mm | 0.89 m/s, 298° | 0 W/m² | - |
| 1778040068 | 19.44° C | 57% | 1008.6 hPa | 0 mm | 1.34 m/s, 331° | 0 W/m² | - |
| 1778039765 | 19.44° C | 57% | 1008.6 hPa | 0 mm | 1.34 m/s, 315° | 0 W/m² | - |
| 1778039462 | 19.44° C | 57% | 1008.6 hPa | 0 mm | 2.24 m/s, 349° | 0 W/m² | - |
| 1778039159 | 20° C | 56% | 1008.4 hPa | 0 mm | 1.79 m/s, 322° | 0 W/m² | - |
| 1778038856 | 20° C | 56% | 1008.5 hPa | 0 mm | 1.79 m/s, 316° | 0 W/m² | - |
| 1778038553 | 20° C | 56% | 1008.3 hPa | 0 mm | 0.89 m/s, 285° | 0 W/m² | - |
| 1778038250 | 20° C | 55% | 1008.3 hPa | 0 mm | 2.68 m/s, 342° | 0 W/m² | - |
| 1778037948 | 20° C | 55% | 1008.2 hPa | 0 mm | 1.34 m/s, 329° | 0 W/m² | - |
| 1778037644 | 19.44° C | 54% | 1008.2 hPa | 0 mm | 1.79 m/s, 314° | 0 W/m² | - |
| 1778037342 | 19.44° C | 55% | 1008.3 hPa | 0 mm | 1.34 m/s, 320° | 0 W/m² | - |
* Rain latest hour (hover to see other rain measurements)
** Current wind speed in m/s (hover to see current wind gust speed)